Overview Statistics Trail Chart Weather Telemetry Raw packets
 

This is the latest recevied weather packets stored in our database for station/object PA0HHN. If no packets are shown the sender has not sent any weather packets the latest 10 day(s).

<< 31 32 33 34 35 36 37 >>
Time Temp. Humidity Pressure Rain* Wind** Luminosity Snow
1787881502 18.89° C 99% 1000.1 hPa - - - -
1787880601 18.89° C 99% 1000.4 hPa - - - -
1787879702 18.89° C 99% 1000.9 hPa - - - -
1787878802 18.89° C 99% 1000.8 hPa - - - -
1787877902 18.89° C 99% 1000.3 hPa - - - -
1787877004 18.89° C 99% 1000.5 hPa - - - -
1787876102 18.89° C 99% 1001 hPa - - - -
1787875202 18.89° C 98% 1001.8 hPa - - - -
1787874301 20° C 97% 1002.8 hPa - - - -
1787873401 21.11° C 98% 1002.1 hPa - - - -
1787872502 21.11° C 97% 1001.4 hPa - - - -
1787871602 21.11° C 96% 1000.7 hPa - - - -
1787870701 21.11° C 92% 1001.3 hPa - - - -
1787869803 22.78° C 83% 1001.9 hPa - - - -
1787868903 22.78° C 77% 1001.1 hPa - - - -
1787868001 22.78° C 76% 1001.2 hPa - - - -
1787867102 23.89° C 75% 1001.4 hPa - - - -
1787866202 23.89° C 75% 1001.2 hPa - - - -
1787865311 23.89° C 75% 1001.3 hPa - - - -
1787864401 23.89° C 74% 1001.3 hPa - - - -
1787863503 23.89° C 74% 1001.6 hPa - - - -
1787862603 23.89° C 73% 1001.4 hPa - - - -
1787861703 23.89° C 73% 1001.6 hPa - - - -
1787860802 25° C 72% 1002.1 hPa - - - -
1787859901 25° C 73% 1002 hPa - - - -

* Rain since midnight (hover to see other rain measurements)
** Current wind speed in m/s (hover to see current wind gust speed)